OZ0AJ-13 Weather Reports


time (UTC)temp
C
wind
direction
speed
KPH
gust
KPH
rain 1hr
cm
rain 24hr
cm
rain mn
cm
humidity
%
barometer
mb
20260505205024 7 19 4.8 14.5 0.00 0.00 0.00 80 1012.3
20260505204020 7 19 4.8 14.5 0.00 0.00 0.00 79 1012.3
20260505203016 7 19 4.8 14.5 0.00 0.00 0.00 78 1012.2
20260505202032 7 19 4.8 14.5 0.00 0.00 0.00 77 1012.2
20260505201028 7 19 4.8 14.5 0.00 0.00 0.00 77 1012.3
20260505200024 8 19 4.8 14.5 0.00 0.00 0.00 76 1012.1
20260505195020 8 19 4.8 14.5 0.00 0.00 0.00 76 1012.1
20260505194016 8 19 4.8 14.5 0.00 0.00 0.00 76 1012.1
20260505193032 8 19 4.8 14.5 0.00 0.00 0.00 77 1012.0
20260505192028 8 19 4.8 14.5 0.00 0.00 0.00 76 1011.9
20260505191024 9 19 4.8 14.5 0.00 0.00 0.00 74 1011.9
20260505190020 9 19 4.8 14.5 0.00 0.00 0.00 73 1011.8
20260505185016 10 19 4.8 14.5 0.00 0.00 0.00 71 1011.7
20260505184032 10 19 4.8 14.5 0.00 0.00 0.00 69 1011.8
20260505183028 11 19 4.8 14.5 0.00 0.00 0.00 65 1011.7
20260505182025 12 19 4.8 14.5 0.00 0.00 0.00 62 1011.9
20260505181021 12 19 4.8 14.5 0.00 0.00 0.00 61 1011.8
20260505180017 13 19 4.8 14.5 0.00 0.00 0.00 60 1011.8
20260505175033 13 19 4.8 14.5 0.00 0.00 0.00 58 1011.6
20260505174029 14 19 4.8 14.5 0.00 0.00 0.00 54 1011.7
20260505173026 14 19 4.8 14.5 0.00 0.00 0.00 55 1011.6
20260505172022 13 19 4.8 14.5 0.00 0.00 0.00 55 1011.7
20260505171018 13 19 4.8 14.5 0.00 0.00 0.00 56 1011.7
20260505170034 14 19 4.8 14.5 0.00 0.00 0.00 56 1011.7
20260505165030 14 19 4.8 14.5 0.00 0.00 0.00 55 1011.8
20260505164026 15 19 4.8 14.5 0.00 0.00 0.00 51 1011.6
20260505163022 15 19 4.8 14.5 0.00 0.00 0.00 49 1011.7
20260505162018 15 19 4.8 14.5 0.00 0.00 0.00 48 1011.7
20260505161035 15 19 4.8 14.5 0.00 0.00 0.00 50 1011.9
20260505153019 15 19 4.8 14.5 0.00 0.00 0.00 50 1011.7
20260505152035 15 19 4.8 14.5 0.00 0.00 0.00 51 1011.8
20260505151031 15 19 4.8 14.5 0.00 0.00 0.00 51 1011.7
20260505125017 12 19 4.8 14.5 0.00 0.00 0.00 61 1012.0
20260505124033 13 19 4.8 14.5 0.00 0.00 0.00 60 1012.0
20260505123029 13 19 4.8 14.5 0.00 0.00 0.00 60 1012.0
20260505122025 13 19 4.8 14.5 0.00 0.00 0.00 60 1012.0
20260505121021 13 19 4.8 14.5 0.00 0.00 0.00 60 1011.8
20260505120017 13 19 4.8 14.5 0.00 0.00 0.00 57 1011.9
20260505115033 12 19 4.8 14.5 0.00 0.00 0.00 60 1011.9
20260505114029 13 19 4.8 14.5 0.00 0.00 0.00 64 1011.9
20260505113025 13 19 4.8 14.5 0.00 0.00 0.00 64 1012.1
20260505112021 12 19 4.8 14.5 0.00 0.00 0.00 69 1012.1
20260505111017 12 19 4.8 14.5 0.00 0.00 0.00 67 1012.2
20260505102018 12 19 4.8 14.5 0.00 0.00 0.00 60 1012.4
20260505101034 12 19 4.8 14.5 0.00 0.00 0.00 60 1012.5
20260505100030 12 19 4.8 14.5 0.00 0.00 0.00 62 1012.5
20260505095026 12 19 4.8 14.5 0.00 0.00 0.00 65 1012.5
20260505094022 12 19 4.8 14.5 0.00 0.00 0.00 64 1012.6
20260505093018 12 19 4.8 14.5 0.00 0.00 0.00 67 1012.5
20260505092034 11 19 4.8 14.5 0.00 0.00 0.00 68 1012.6
20260505091030 11 19 4.8 14.5 0.00 0.00 0.00 70 1012.5
20260505090026 11 19 4.8 14.5 0.00 0.00 0.00 71 1012.5
20260505085022 11 19 4.8 14.5 0.00 0.00 0.00 71 1012.7
20260505084018 11 19 4.8 14.5 0.00 0.00 0.00 71 1012.6
20260505083034 11 19 4.8 14.5 0.00 0.00 0.00 71 1012.6
20260505082030 11 19 4.8 14.5 0.00 0.00 0.00 73 1012.7
20260505081026 10 19 4.8 14.5 0.00 0.00 0.00 74 1012.5
20260505080022 10 19 4.8 14.5 0.00 0.00 0.00 78 1012.5
20260505075019 9 19 4.8 14.5 0.00 0.00 0.00 80 1012.6
20260505074035 9 19 4.8 14.5 0.00 0.00 0.00 81 1012.7
20260505073031 9 19 4.8 14.5 0.00 0.00 0.00 82 1012.7
20260505072027 9 19 4.8 14.5 0.00 0.00 0.00 81 1012.7
20260505071023 9 19 4.8 14.5 0.00 0.00 0.00 83 1012.7
20260505070019 8 19 4.8 14.5 0.00 0.00 0.00 82 1012.8
20260505065016 8 19 4.8 14.5 0.00 0.00 0.00 83 1012.8
20260505064031 8 19 4.8 14.5 0.00 0.00 0.00 84 1012.8
20260505063027 8 19 4.8 14.5 0.00 0.00 0.00 86 1012.7
20260505062024 8 19 4.8 14.5 0.00 0.00 0.00 88 1012.7
20260505061020 8 19 4.8 14.5 0.00 0.00 0.00 89 1012.7
20260505060016 7 19 4.8 14.5 0.00 0.00 0.00 89 1012.7
20260505055032 7 19 4.8 14.5 0.00 0.00 0.00 89 1012.6
20260505054028 7 19 4.8 14.5 0.00 0.00 0.00 90 1012.6
20260505053024 7 19 4.8 14.5 0.00 0.00 0.00 91 1012.6
20260505052020 6 19 4.8 14.5 0.00 0.00 0.00 92 1012.5
20260505051016 6 19 4.8 14.5 0.00 0.00 0.00 93 1012.5
20260505041032 5 19 4.8 14.5 0.00 0.00 0.00 93 1012.4
20260505040028 5 19 4.8 14.5 0.00 0.00 0.00 93 1012.5
20260505035024 5 19 4.8 14.5 0.00 0.00 0.00 93 1012.5
20260505034019 5 19 4.8 14.5 0.00 0.00 0.00 93 1012.6
20260505033015 5 19 4.8 14.5 0.00 0.00 0.00 93 1012.6
20260505032032 5 19 4.8 14.5 0.00 0.00 0.00 93 1012.6
20260505031027 5 19 4.8 14.5 0.00 0.00 0.00 93 1012.6
20260505030024 5 19 4.8 14.5 0.00 0.00 0.00 92 1012.6
20260505025020 5 19 4.8 14.5 0.00 0.00 0.00 92 1012.7
20260505024016 5 19 4.8 14.5 0.00 0.00 0.00 92 1012.7
20260505023032 5 19 4.8 14.5 0.00 0.00 0.00 92 1012.8
20260505022028 5 19 4.8 14.5 0.00 0.00 0.00 92 1012.9
20260505021024 5 19 4.8 14.5 0.00 0.00 0.00 92 1012.8
20260505020020 5 19 4.8 14.5 0.00 0.00 0.00 92 1013.0
20260505015016 5 19 4.8 14.5 0.00 0.00 0.00 91 1013.0
20260505014033 5 19 4.8 14.5 0.00 0.00 0.00 91 1013.1
20260505013029 6 19 4.8 14.5 0.00 0.00 0.00 91 1013.2
20260505012025 5 19 4.8 14.5 0.00 0.00 0.00 91 1013.2
20260505011021 5 19 4.8 14.5 0.00 0.03 0.00 92 1013.2
20260505010017 5 19 4.8 14.5 0.00 0.03 0.00 91 1013.3
20260505005033 5 19 4.8 14.5 0.00 0.03 0.00 91 1013.4
20260505004029 5 19 4.8 14.5 0.00 0.03 0.00 91 1013.5
20260505003025 5 19 4.8 14.5 0.00 0.03 0.00 91 1013.4
20260505002021 5 19 4.8 14.5 0.00 0.03 0.00 91 1013.4
20260505001017 5 19 4.8 14.5 0.00 0.05 0.00 91 1013.5
20260505000033 5 19 4.8 14.5 0.00 0.05 0.00 91 1013.6
20260504235030 5 19 4.8 14.5 0.00 0.08 0.00 91 1013.5
20260504234026 5 19 4.8 14.5 0.00 0.10 0.00 91 1013.5
20260504233022 5 19 4.8 14.5 0.00 0.10 0.00 90 1013.6
20260504232018 6 19 4.8 14.5 0.00 0.10 0.00 90 1013.6
20260504231034 6 19 4.8 14.5 0.00 0.10 0.00 90 1013.5
20260504230030 6 19 4.8 14.5 0.00 0.10 0.00 90 1013.6
20260504225026 6 19 4.8 14.5 0.00 0.10 0.00 90 1013.6
20260504224022 6 19 4.8 14.5 0.00 0.10 0.00 90 1013.6
20260504223019 6 19 4.8 14.5 0.00 0.10 0.00 90 1013.7
20260504222034 6 19 4.8 14.5 0.00 0.13 0.00 89 1013.7
20260504221030 6 19 4.8 14.5 0.00 0.13 0.00 89 1013.5
20260504220026 6 19 4.8 14.5 0.00 0.15 0.15 89 1013.6
20260504215023 6 19 4.8 14.5 0.00 0.20 0.15 89 1013.6
20260504214019 6 19 4.8 14.5 0.00 0.25 0.15 88 1013.6
20260504213035 6 19 4.8 14.5 0.00 0.28 0.15 88 1013.7
20260504212031 6 19 4.8 14.5 0.00 0.30 0.15 88 1013.6
20260504211027 6 19 4.8 14.5 0.00 0.33 0.15 88 1013.7
20260504210023 6 19 4.8 14.5 0.00 0.36 0.15 88 1013.7